User: anonymous   Login
Location: D�derode
(51.8092°N, 10.1065°E)
Time: 02:26:28
(UTC+00:00)
Language:

H-2A R/B - Orbit

View from above orbital plane
View from above orbital plane
View from above satellite
View from above satellite

Ground track
Ground track

The orbit data is extracted from the following two-line orbital elements,

1 27601U 02056E   21059.48869023 -.00000061  00000-0 -72054-5 0  9998
2 27601  98.2016  87.7134 0071238 234.2025 260.9171 14.31991013951332
Epoch (UTC): 28 February 2021 11:43:42
Eccentricity: 0.0071238
inclination: 98.2016°
perigee height: 734 km
apogee height: 836 km
right ascension of ascending node: 87.7134°
argument of perigee: 234.2025°
revolutions per day: 14.31991013
mean anomaly at epoch: 260.9171°
orbit number at epoch: 95133

The dashed part of the orbit path shows where the satellite is in the earth's shadow,  

DLR